Home > Time Zones > World Clock > Weather > Germany > Ulm > Past weeks

Flag for Germany Weather past 2 weeks in Ulm, Baden-Württemberg, Germany

Now
34 °F

Snow flurries. Broken clouds.


Feels Like: 25 °F
Forecast: 30 / 38 °F
Wind: 13 mph from West

Location: Laupheim Airport

Current Time: Jan 27, 2015 at 2:18:59 PM

Latest Report: Jan 27, 2015 at 1:49 PM


Visibility: N/A

Pressure: 30.12 "Hg

Humidity: 81%

Dew point: 28 °F

Location of UlmLocation

Historic Weather in Ulm — Graph

°F

Ulm temperature yesterday

Maximum temperature yesterday: 32 °F (at 11:20 AM)
Minimum temperature yesterday: 28 °F (at 6:20 PM)
Average temperature yesterday: 30 °F

Past Weeks' High & Low Weather Summary

 TemperatureHumidityPressure
High52 °F (Jan 13, 2:20 PM)100% (Jan 15, 1:20 AM)30.36 "Hg (Jan 15, 1:20 AM)
Low28 °F (Jan 18, 9:20 AM)32% (Jan 13, 1:20 PM)29.65 "Hg (Jan 16, 4:20 PM)
Average33 °F88%29.98 "Hg
* Reported Jan 12 12:20 PM — Jan 27 12:20 PM, Ulm, Weather by CustomWeather, © 2014

Note: Actual official high and low records may vary slightly from our data, if they occured in-between our weather recording intervals... More about our weather records

Advertising

Ulm weather history for previous 24 hours

 ConditionsComfort  
Time TempWeatherWind HumidityBarometerVisibility
12:20 PM
Jan 27
34 °FBroken clouds.9 mph87%30.15 "HgN/A
11:49 AM34 °FSnow flurries. Partly sunny.9 mph87%30.15 "Hg3 mi
11:20 AM34 °FBroken clouds.7 mph81%30.15 "HgN/A
11:03 AM34 °FSnow flurries. Broken clouds.7 mph87%30.15 "HgN/A
10:46 AM34 °FSnow showers. Partly sunny.6 mph81%30.15 "Hg2 mi
10:20 AM34 °FSnow flurries. Partly sunny.8 mph87%30.15 "Hg4 mi
9:20 AM30 °FSnow flurries. Partly sunny.5 mph93%30.15 "Hg4 mi
8:55 AM30 °FSnow flurries. Partly sunny.6 mph100%30.12 "Hg5 mi
8:20 AM30 °FScattered clouds.7 mph93%30.12 "HgN/A
7:20 AM32 °FPassing clouds.5 mph87%30.12 "HgN/A
6:20 AM32 °FPartly cloudy.7 mph100%30.09 "Hg4 mi
5:49 AM34 °FSnow. Fog.7 mph93%30.09 "Hg1 mi
5:20 AM34 °FLight snow. Partly cloudy.7 mph87%30.09 "Hg5 mi
4:20 AM34 °FLight snow. Fog.9 mph93%30.09 "Hg3 mi
3:20 AM32 °FLight snow. Ice fog.12 mph100%30.09 "Hg2 mi
2:20 AM32 °FLight snow. Ice fog.13 mph100%30.07 "Hg2 mi
1:20 AM32 °FLight snow. Ice fog.13 mph93%30.07 "Hg2 mi
12:20 AM32 °FLight snow. Ice fog.14 mph93%30.07 "Hg2 mi
11:20 PM
Jan 26
30 °FLight snow. Ice fog.13 mph100%30.07 "Hg2 mi
10:20 PM30 °FSnow. Ice fog.12 mph93%30.07 "Hg2 mi
9:20 PM30 °FSnow. Ice fog.13 mph93%30.07 "Hg1 mi
8:20 PM30 °FSnow. Ice fog.14 mph93%30.09 "Hg1 mi
7:20 PM28 °FSnow. Ice fog.14 mph100%30.12 "Hg1 mi
6:20 PM28 °FLight snow. Ice fog.13 mph100%30.12 "Hg2 mi
5:20 PM30 °FSnow. Ice fog.12 mph86%30.12 "Hg2 mi
4:20 PM30 °FLight snow. More clouds than sun.10 mph93%30.15 "Hg4 mi
3:49 PM30 °FLight snow. Ice fog.12 mph86%30.15 "Hg2 mi
3:20 PM30 °FSnow. Ice fog.12 mph86%30.18 "Hg2 mi
2:20 PM32 °FLight snow. Overcast.12 mph75%30.18 "HgN/A
Weather by CustomWeather, © 2014

See weather overviewHow to use our weather pages